Location: Peebles
(55.6412°N, 3.1714°W)
Time: 08:34:34
(UTC+01:00)

ISS - Pass Details

Date: 26 September 2021
Orbit: 417 x 423 km, 51.6° (Epoch: 21 October)

Event Time Altitude Azimuth Distance (km) Brightness Sun altitude
Rises 21:31:42 0° 271° (W) 2,367 1.1 -21.2°
Reaches altitude 10° 21:33:56 10° 261° (W) 1,503 -0.3 -21.5°
Enters shadow 21:36:05 26° 227° (SW) 859 -2.1 -21.8°
